EXS43KO LEAL-EGGP

Flight info

Callsign EXS43KO
Flight time N/A
Altitude 34000
Route MITOS3A MITOS N608 COMPI Y90 USKAR N863 GIROM DCT AGN DCT SECHE DCT UVELI DCT CNA DCT MANAK DCT MUREL DCT NOZHU/N0451F350 DCT SHIRI DCT TOJAQ DCT EPACE DCT ACCOP/N0445F340 P16 PEPZE PEPZE1L
Aircraft A321/M-SDE3FGHIRWY/LB1

Departure

Time 2026-05-04 17:40
Airport Alicante-Elche Miguel Hernández Airport (LEAL)

Arrival

Time N/A
Airport Liverpool John Lennon Airport (EGGP)
Time Latitude Longitude Altitude Speed Heading
2026-05-04 17:23 38.28548 -0.55404 89 ft 0 kts 10°
2026-05-04 17:33 38.28489 -0.55406 90 ft 4 kts 341°
2026-05-04 17:33 38.28469 -0.55391 91 ft 4 kts 295°
2026-05-04 17:34 38.28466 -0.55382 91 ft 0 kts 279°
2026-05-04 17:35 38.28466 -0.55384 91 ft 2 kts 279°
2026-05-04 17:35 38.28477 -0.55460 93 ft 9 kts 280°
2026-05-04 17:35 38.28474 -0.55582 97 ft 12 kts 226°
2026-05-04 17:36 38.28388 -0.55617 99 ft 12 kts 199°
2026-05-04 17:36 38.28372 -0.55684 101 ft 6 kts 281°
2026-05-04 17:36 38.28377 -0.55713 101 ft 4 kts 283°
2026-05-04 17:36 38.28393 -0.55809 103 ft 21 kts 280°
2026-05-04 17:37 38.28424 -0.56067 108 ft 33 kts 284°
2026-05-04 17:37 38.28468 -0.56345 112 ft 29 kts 280°
2026-05-04 17:37 38.28499 -0.56576 116 ft 24 kts 278°
2026-05-04 17:37 38.28529 -0.56770 121 ft 20 kts 282°
2026-05-04 17:38 38.28551 -0.56916 133 ft 14 kts 279°
2026-05-04 17:38 38.28567 -0.57049 138 ft 21 kts 278°
2026-05-04 17:38 38.28597 -0.57263 147 ft 25 kts 281°
2026-05-04 17:38 38.28619 -0.57436 153 ft 17 kts 276°
2026-05-04 17:39 38.28484 -0.57512 157 ft 9 kts 177°
2026-05-04 17:39 38.28444 -0.57452 155 ft 13 kts 99°
2026-05-04 17:39 38.28400 -0.57127 141 ft 72 kts 99°
2026-05-04 17:40 38.28275 -0.56227 115 ft 131 kts 100°
2026-05-04 17:40 38.28090 -0.54905 95 ft 174 kts 103°
2026-05-04 17:40 38.27863 -0.53407 691 ft 169 kts 104°
2026-05-04 17:40 38.27627 -0.51957 1312 ft 167 kts 105°
2026-05-04 17:41 38.27400 -0.50495 1829 ft 173 kts 96°
2026-05-04 17:41 38.27575 -0.48906 2073 ft 192 kts 69°
2026-05-04 17:41 38.28196 -0.47574 2302 ft 204 kts 56°
2026-05-04 17:41 38.28996 -0.46092 2516 ft 215 kts 56°
2026-05-04 17:42 38.29870 -0.44438 2673 ft 236 kts 57°
2026-05-04 17:42 38.30821 -0.42601 2860 ft 260 kts 57°
2026-05-04 17:42 38.31844 -0.40618 3332 ft 273 kts 57°
2026-05-04 17:42 38.32839 -0.38532 3980 ft 278 kts 66°
2026-05-04 17:43 38.33559 -0.36231 4696 ft 282 kts 68°
2026-05-04 17:43 38.34278 -0.33886 5351 ft 286 kts 68°
2026-05-04 17:43 38.35012 -0.31508 6022 ft 291 kts 67°
2026-05-04 17:43 38.35759 -0.29083 6659 ft 296 kts 67°
2026-05-04 17:44 38.36524 -0.26631 7286 ft 300 kts 66°
2026-05-04 17:44 38.37335 -0.24161 7919 ft 304 kts 65°
2026-05-04 17:44 38.38174 -0.21665 8552 ft 308 kts 65°
2026-05-04 17:44 38.39030 -0.19141 9174 ft 312 kts 65°
2026-05-04 17:45 38.39894 -0.16583 9801 ft 316 kts 66°
2026-05-04 17:45 38.40765 -0.13987 10352 ft 321 kts 66°
2026-05-04 17:45 38.41668 -0.11283 10530 ft 342 kts 66°
2026-05-04 17:45 38.42639 -0.08425 10663 ft 361 kts 63°
2026-05-04 17:46 38.44057 -0.05687 10790 ft 378 kts 46°
2026-05-04 17:46 38.46052 -0.03471 11135 ft 383 kts 30°
2026-05-04 17:46 38.48412 -0.02007 11647 ft 382 kts 14°
2026-05-04 17:46 38.51000 -0.01350 12193 ft 379 kts 358°
2026-05-04 17:47 38.53639 -0.01295 12761 ft 381 kts 355°
2026-05-04 17:47 38.56298 -0.01277 13338 ft 384 kts 355°
2026-05-04 17:47 38.58985 -0.01265 13877 ft 388 kts 355°
2026-05-04 17:47 38.61701 -0.01257 14372 ft 392 kts 355°
2026-05-04 17:48 38.64433 -0.01249 14884 ft 395 kts 355°
2026-05-04 17:48 38.67193 -0.01238 15425 ft 398 kts 355°
2026-05-04 17:48 38.69980 -0.01222 15926 ft 402 kts 355°
2026-05-04 17:48 38.72788 -0.01204 16468 ft 405 kts 354°
2026-05-04 17:49 38.75617 -0.01184 16986 ft 408 kts 354°
2026-05-04 17:49 38.78475 -0.01162 17457 ft 412 kts 355°
2026-05-04 17:49 38.81346 -0.01139 17916 ft 415 kts 354°
2026-05-04 17:49 38.84248 -0.01117 18336 ft 418 kts 354°
2026-05-04 17:50 38.87167 -0.01099 18725 ft 421 kts 354°
2026-05-04 17:50 38.90108 -0.01080 19110 ft 424 kts 354°
2026-05-04 17:50 38.93075 -0.01060 19500 ft 427 kts 354°
2026-05-04 17:50 38.96060 -0.01042 19885 ft 430 kts 354°
2026-05-04 17:51 38.99063 -0.01024 20268 ft 433 kts 354°
2026-05-04 17:51 39.02084 -0.01007 20658 ft 436 kts 354°
2026-05-04 17:51 39.05127 -0.00988 21039 ft 438 kts 354°
2026-05-04 17:51 39.08188 -0.00966 21429 ft 441 kts 354°
2026-05-04 17:52 39.11268 -0.00942 21813 ft 444 kts 354°